Voltar ao catálogo

STARLINK-37674

AtivoComunicaçõesVLEO
NORAD 100278·PAYLOAD·🇺🇸 United States

Lançado Aug 11, 2026 de Cape Canaveral Space Force Station

Loading…

Próximas Passagens (próximas 24 horas)

TLE

EnvelhecendoSource: Space-Track

Época: Sep 13, 2026, 07:07 UTC

1 A0278U 26183G   26256.29673909 -.01285714  00000-0 -10944-1 0  9992
2 A0278  53.1586 292.7948 0000409  34.8762 325.2284 15.71615023  5171

Acompanhe STARLINK-37674 em tempo real com AllMySat

Download on the App Store